| time (UTC) | temp C | wind direction | speed KPH | gust KPH | rain 1hr cm | rain 24hr cm | rain mn cm | humidity % | barometer mb |
| 20260505101204 | 4 | 254 | 0.0 | 4.8 | 0.00 | 0.00 | 0.00 | 57 | 1014.6 |
| 20260505100204 | 4 | 254 | 0.0 | 4.8 | 0.00 | 0.00 | 0.00 | 56 | 1014.9 |
| 20260505095204 | 4 | 296 | 0.0 | 4.8 | 0.00 | 0.00 | 0.00 | 56 | 1014.9 |
| 20260505094204 | 4 | 296 | 0.0 | 4.8 | 0.00 | 0.00 | 0.00 | 56 | 1014.9 |
| 20260505093204 | 4 | 296 | 0.0 | 4.8 | 0.00 | 0.00 | 0.00 | 57 | 1014.9 |
| 20260505092204 | 4 | 186 | 0.0 | 4.8 | 0.00 | 0.00 | 0.00 | 57 | 1014.9 |
| 20260505091204 | 4 | 230 | 0.0 | 4.8 | 0.00 | 0.00 | 0.00 | 58 | 1014.9 |
| 20260505090203 | 4 | 274 | 0.0 | 4.8 | 0.00 | 0.00 | 0.00 | 59 | 1014.9 |
| 20260505085203 | 4 | 116 | 0.0 | 4.8 | 0.00 | 0.00 | 0.00 | 61 | 1014.9 |
| 20260505084203 | 5 | 122 | 0.0 | 4.8 | 0.00 | 0.00 | 0.00 | 60 | 1015.2 |
| 20260505083203 | 5 | 48 | 0.0 | 4.8 | 0.00 | 0.00 | 0.00 | 59 | 1015.2 |
| 20260505082203 | 5 | 86 | 1.6 | 4.8 | 0.00 | 0.00 | 0.00 | 57 | 1015.2 |
| 20260505081203 | 5 | 279 | 0.0 | 3.2 | 0.00 | 0.00 | 0.00 | 52 | 1015.2 |
| 20260505080203 | 5 | 279 | 0.0 | 3.2 | 0.00 | 0.00 | 0.00 | 56 | 1015.2 |
| 20260505075203 | 5 | 279 | 0.0 | 3.2 | 0.00 | 0.00 | 0.00 | 57 | 1015.2 |
| 20260505074203 | 5 | 279 | 0.0 | 3.2 | 0.00 | 0.00 | 0.00 | 57 | 1015.2 |
| 20260505073203 | 5 | 279 | 0.0 | 3.2 | 0.00 | 0.00 | 0.00 | 58 | 1015.2 |
| 20260505072203 | 5 | 279 | 0.0 | 3.2 | 0.00 | 0.00 | 0.00 | 57 | 1015.2 |
| 20260505071203 | 5 | 279 | 0.0 | 3.2 | 0.00 | 0.00 | 0.00 | 56 | 1015.2 |
| 20260505070203 | 5 | 279 | 0.0 | 3.2 | 0.00 | 0.00 | 0.00 | 54 | 1015.2 |
| 20260505065203 | 5 | 279 | 0.0 | 3.2 | 0.00 | 0.00 | 0.00 | 55 | 1015.2 |
| 20260505064203 | 5 | 279 | 0.0 | 3.2 | 0.00 | 0.00 | 0.00 | 54 | 1014.9 |
| 20260505063203 | 5 | 279 | 0.0 | 3.2 | 0.00 | 0.00 | 0.00 | 54 | 1014.9 |
| 20260505062203 | 6 | 279 | 0.0 | 3.2 | 0.00 | 0.00 | 0.00 | 53 | 1014.9 |
| 20260505061203 | 6 | 279 | 0.0 | 3.2 | 0.00 | 0.00 | 0.00 | 51 | 1014.9 |
| 20260505060203 | 6 | 279 | 0.0 | 0.0 | 0.00 | 0.00 | 0.00 | 52 | 1014.9 |
| 20260505055203 | 6 | 279 | 0.0 | 24.1 | 0.00 | 0.00 | 0.00 | 51 | 1014.9 |
| 20260505054203 | 6 | 279 | 1.6 | 24.1 | 0.00 | 0.00 | 0.00 | 51 | 1015.2 |
| 20260505053133 | 6 | 279 | 0.0 | 24.1 | 0.00 | 0.00 | 0.00 | 50 | 1015.2 |
| 20260505052132 | 7 | 279 | 0.0 | 24.1 | 0.00 | 0.00 | 0.00 | 48 | 1015.2 |
| 20260505051132 | 7 | 279 | 0.0 | 24.1 | 0.00 | 0.00 | 0.00 | 47 | 1015.2 |
| 20260505050132 | 7 | 279 | 0.0 | 24.1 | 0.00 | 0.00 | 0.00 | 46 | 1015.2 |
| 20260505041132 | 8 | 280 | 0.0 | 24.1 | 0.00 | 0.00 | 0.00 | 43 | 1015.2 |
| 20260505040132 | 8 | 280 | 0.0 | 24.1 | 0.00 | 0.00 | 0.00 | 42 | 1015.2 |
| 20260505035132 | 9 | 280 | 0.0 | 24.1 | 0.00 | 0.00 | 0.00 | 40 | 1015.2 |
| 20260505034132 | 9 | 280 | 0.0 | 24.1 | 0.00 | 0.00 | 0.00 | 40 | 1015.2 |
| 20260505033132 | 10 | 281 | 0.0 | 24.1 | 0.00 | 0.00 | 0.00 | 39 | 1015.2 |
| 20260505032132 | 10 | 280 | 0.0 | 24.1 | 0.00 | 0.00 | 0.00 | 40 | 1015.2 |
| 20260505031132 | 10 | 280 | 1.6 | 24.1 | 0.00 | 0.00 | 0.00 | 38 | 1014.9 |
| 20260505030132 | 10 | 280 | 1.6 | 24.1 | 0.00 | 0.00 | 0.00 | 37 | 1014.9 |
| 20260505025102 | 11 | 280 | 1.6 | 24.1 | 0.00 | 0.00 | 0.00 | 38 | 1014.9 |
| 20260505024102 | 11 | 280 | 1.6 | 24.1 | 0.00 | 0.00 | 0.00 | 37 | 1014.9 |
| 20260505023102 | 11 | 280 | 1.6 | 24.1 | 0.00 | 0.00 | 0.00 | 37 | 1014.9 |
| 20260505022102 | 12 | 280 | 1.6 | 24.1 | 0.00 | 0.00 | 0.00 | 36 | 1014.9 |
| 20260505021102 | 12 | 280 | 1.6 | 24.1 | 0.00 | 0.00 | 0.00 | 34 | 1014.9 |
| 20260505015102 | 13 | 281 | 0.0 | 24.1 | 0.00 | 0.00 | 0.00 | 32 | 1014.6 |
| 20260505014102 | 14 | 281 | 0.0 | 24.1 | 0.00 | 0.00 | 0.00 | 30 | 1014.6 |
| 20260505013102 | 14 | 280 | 1.6 | 24.1 | 0.00 | 0.00 | 0.00 | 27 | 1014.6 |
| 20260505012102 | 15 | 316 | 0.0 | 24.1 | 0.00 | 0.00 | 0.00 | 26 | 1014.6 |
| 20260505011102 | 15 | 249 | 0.0 | 24.1 | 0.00 | 0.00 | 0.00 | 28 | 1014.9 |
| 20260505010032 | 15 | 265 | 1.6 | 24.1 | 0.00 | 0.00 | 0.00 | 26 | 1014.9 |
| 20260505005032 | 15 | 270 | 3.2 | 24.1 | 0.00 | 0.00 | 0.00 | 26 | 1015.2 |
| 20260505004032 | 15 | 315 | 3.2 | 24.1 | 0.00 | 0.00 | 0.00 | 26 | 1015.2 |
| 20260505003032 | 16 | 269 | 8.0 | 24.1 | 0.00 | 0.00 | 0.00 | 24 | 1015.2 |
| 20260505002031 | 16 | 171 | 3.2 | 24.1 | 0.00 | 0.00 | 0.00 | 24 | 1015.2 |
| 20260505001032 | 16 | 248 | 3.2 | 24.1 | 0.00 | 0.00 | 0.00 | 25 | 1015.2 |
| 20260505000031 | 16 | 219 | 1.6 | 24.1 | 0.00 | 0.00 | 0.00 | 26 | 1015.2 |
| 20260504235031 | 17 | 259 | 8.0 | 24.1 | 0.00 | 0.00 | 0.00 | 24 | 1015.2 |
| 20260504234031 | 17 | 237 | 8.0 | 24.1 | 0.00 | 0.00 | 0.00 | 24 | 1015.2 |
| 20260504233031 | 17 | 181 | 8.0 | 24.1 | 0.00 | 0.00 | 0.00 | 25 | 1014.9 |
| 20260504232031 | 17 | 201 | 3.2 | 24.1 | 0.00 | 0.00 | 0.00 | 26 | 1015.2 |
| 20260504231031 | 17 | 131 | 1.6 | 24.1 | 0.00 | 0.00 | 0.00 | 26 | 1015.2 |
| 20260504230031 | 16 | 212 | 8.0 | 24.1 | 0.00 | 0.00 | 0.00 | 26 | 1015.2 |
| 20260504225031 | 17 | 231 | 1.6 | 24.1 | 0.00 | 0.00 | 0.00 | 28 | 1015.2 |
| 20260504224031 | 17 | 251 | 3.2 | 24.1 | 0.00 | 0.00 | 0.00 | 27 | 1015.2 |
| 20260504223031 | 17 | 326 | 4.8 | 24.1 | 0.00 | 0.00 | 0.00 | 27 | 1015.2 |
| 20260504222031 | 17 | 256 | 3.2 | 24.1 | 0.00 | 0.00 | 0.00 | 27 | 1015.2 |
| 20260504221031 | 17 | 298 | 11.3 | 24.1 | 0.00 | 0.00 | 0.00 | 25 | 1015.6 |
| 20260504220031 | 18 | 210 | 4.8 | 24.1 | 0.00 | 0.00 | 0.00 | 26 | 1015.6 |
| 20260504215031 | 17 | 210 | 1.6 | 24.1 | 0.00 | 0.00 | 0.00 | 29 | 1015.9 |
| 20260504214031 | 18 | 282 | 8.0 | 24.1 | 0.00 | 0.00 | 0.00 | 27 | 1015.9 |
| 20260504213031 | 17 | 231 | 4.8 | 20.9 | 0.00 | 0.00 | 0.00 | 30 | 1016.3 |
| 20260504212031 | 17 | 270 | 8.0 | 20.9 | 0.00 | 0.00 | 0.00 | 28 | 1016.3 |
| 20260504211031 | 17 | 256 | 9.7 | 20.9 | 0.00 | 0.00 | 0.00 | 29 | 1016.6 |
| 20260504210031 | 17 | 293 | 3.2 | 20.9 | 0.00 | 0.00 | 0.00 | 33 | 1016.6 |
| 20260504205030 | 16 | 204 | 3.2 | 20.9 | 0.00 | 0.00 | 0.00 | 32 | 1016.9 |
| 20260504204030 | 16 | 220 | 8.0 | 20.9 | 0.00 | 0.00 | 0.00 | 32 | 1016.9 |
| 20260504203030 | 17 | 289 | 9.7 | 20.9 | 0.00 | 0.00 | 0.00 | 34 | 1016.6 |
| 20260504202030 | 17 | 302 | 1.6 | 20.9 | 0.00 | 0.00 | 0.00 | 34 | 1016.6 |
| 20260504201030 | 17 | 191 | 3.2 | 20.9 | 0.00 | 0.00 | 0.00 | 34 | 1016.6 |
| 20260504200030 | 16 | 33 | 3.2 | 20.9 | 0.00 | 0.00 | 0.00 | 35 | 1016.6 |
| 20260504195030 | 16 | 267 | 3.2 | 20.9 | 0.00 | 0.00 | 0.00 | 36 | 1016.9 |
| 20260504194030 | 16 | 234 | 3.2 | 20.9 | 0.00 | 0.00 | 0.00 | 36 | 1016.9 |
| 20260504193030 | 16 | 149 | 1.6 | 20.9 | 0.00 | 0.00 | 0.00 | 40 | 1017.3 |
| 20260504192030 | 16 | 233 | 1.6 | 20.9 | 0.00 | 0.00 | 0.00 | 39 | 1017.3 |
| 20260504191030 | 15 | 253 | 4.8 | 20.9 | 0.00 | 0.00 | 0.00 | 39 | 1017.6 |
| 20260504190030 | 16 | 257 | 4.8 | 19.3 | 0.00 | 0.00 | 0.00 | 39 | 1017.6 |
| 20260504185030 | 15 | 170 | 1.6 | 14.5 | 0.00 | 0.00 | 0.00 | 42 | 1017.6 |
| 20260504184030 | 15 | 218 | 3.2 | 14.5 | 0.00 | 0.00 | 0.00 | 40 | 1017.6 |
| 20260504183030 | 15 | 229 | 3.2 | 12.9 | 0.00 | 0.00 | 0.00 | 42 | 1017.6 |
| 20260504182030 | 15 | 301 | 4.8 | 12.9 | 0.00 | 0.00 | 0.00 | 42 | 1017.6 |
| 20260504181030 | 15 | 262 | 4.8 | 12.9 | 0.00 | 0.00 | 0.00 | 40 | 1017.9 |
| 20260504180030 | 15 | 211 | 1.6 | 12.9 | 0.00 | 0.00 | 0.00 | 42 | 1017.9 |
| 20260504175030 | 15 | 174 | 3.2 | 8.0 | 0.00 | 0.00 | 0.00 | 47 | 1018.3 |
| 20260504174030 | 15 | 239 | 1.6 | 6.4 | 0.00 | 0.00 | 0.00 | 43 | 1018.3 |
| 20260504173030 | 15 | 154 | 1.6 | 6.4 | 0.00 | 0.00 | 0.00 | 46 | 1018.3 |
| 20260504172030 | 14 | 327 | 1.6 | 6.4 | 0.00 | 0.00 | 0.00 | 48 | 1018.3 |
| 20260504171030 | 13 | 206 | 0.0 | 6.4 | 0.00 | 0.00 | 0.00 | 50 | 1018.3 |
| 20260504150929 | 9 | 64 | 0.0 | 6.4 | 0.00 | 0.00 | 0.00 | 67 | 1019.0 |
| 20260504140929 | 7 | 350 | 0.0 | 6.4 | 0.00 | 0.00 | 0.00 | 73 | 1018.6 |